Providence, RI

2:48 AM EDT on March 30, 2017 (GMT -0400)
Green State

Weather History for KPVD - March, 2012

Change the Weather History Date:

Saturday, March 10, 2012

  Actual Average Record
Temperature  
Mean Temperature 35 °F 37 °F  
Max Temperature 41 °F 46 °F 72 °F (2016)
Min Temperature 28 °F 28 °F 6 °F (1984)
Degree Days  
Heating Degree Days 30 28  
Month to date heating degree days 258 292  
Since 1 July heating degree days 3673 4354  
Cooling Degree Days 0 0  
Month to date cooling degree days 0 0  
Year to date cooling degree days 0 0  
Moisture  
Dew Point 16 °F    
Average Humidity 56    
Maximum Humidity 75    
Minimum Humidity 37    
Precipitation  
Precipitation 0.00 in 0.16 in 2.32 in (1994)
Month to date precipitation 0.86 1.47  
Year to date precipitation 5.75 8.62  
Snow  
Snow 0.00 in 0.30 in 5.00 in (1928)
Month to date snowfall 0.2 2.5  
Since 1 July snowfall 17.8 30.2  
Snow Depth 0.00 in    
Sea Level Pressure  
Sea Level Pressure 30.40 in    
Wind  
Wind Speed 10 mph (NNW)    
Max Wind Speed 21 mph    
Max Gust Speed 28 mph    
Visibility 10 miles    
Events      
T = Trace of Precipitation, MM = Missing Value Source: NWS Daily Summary

Daily Weather History Graph

Daily Weather History Graph

Search for Another Location

Airport or City:

Trip Planner

Search our weather history database for the weather conditions in past years. The results will help you decide how hot, cold, wet, or windy it might be!

Date:

Astronomy

Mar. 10, 2012 Rise Set
Actual Time 6:05 AM EST 5:47 PM EST
Civil Twilight 5:37 AM EST 6:14 PM EST
Nautical Twilight 5:05 AM EST 6:47 PM EST
Astronomical Twilight 4:32 AM EST 7:19 PM EST
Moon 8:59 PM EST (3/10) 6:55 AM EST (3/10)
Length of Visible Light 12h 37m
Length of Day
11h 42m
Waning Gibbous, 93% of the Moon is Illuminated
Mar 10
Waning Gibbous
Mar 14
Last Quarter
Mar 22
New
Mar 30
First Quarter
Apr 6
Full

Hourly Weather History & Observations

Time (EST) Temp. Windchill Dew Point Humidity Pressure Visibility Wind Dir Wind Speed Gust Speed Precip Events Conditions
12:51 AM 34.0 °F 26.0 °F 19.0 °F 54% 30.18 in 10.0 mi WNW 10.4 mph - N/A   Clear
1:51 AM 33.1 °F 24.9 °F 15.1 °F 48% 30.19 in 10.0 mi NW 10.4 mph 19.6 mph N/A   Clear
2:51 AM 32.0 °F 24.2 °F 10.9 °F 42% 30.21 in 10.0 mi NW 9.2 mph - N/A   Clear
3:51 AM 30.0 °F 19.5 °F 10.0 °F 43% 30.23 in 10.0 mi NW 13.8 mph 20.7 mph N/A   Clear
4:51 AM 30.0 °F 18.3 °F 10.0 °F 43% 30.25 in 10.0 mi WNW 17.3 mph 23.0 mph N/A   Clear
5:51 AM 30.0 °F 20.0 °F 10.9 °F 45% 30.28 in 10.0 mi WNW 12.7 mph - N/A   Scattered Clouds
6:51 AM 30.0 °F 18.7 °F 12.0 °F 47% 30.31 in 10.0 mi NW 16.1 mph 24.2 mph N/A   Scattered Clouds
7:51 AM 30.9 °F 20.2 °F 14.0 °F 50% 30.34 in 10.0 mi NNW 15.0 mph 24.2 mph N/A   Partly Cloudy
8:51 AM 34.0 °F 25.0 °F 15.1 °F 46% 30.37 in 10.0 mi North 12.7 mph 24.2 mph N/A   Scattered Clouds
9:51 AM 35.1 °F 24.5 °F 16.0 °F 46% 30.39 in 10.0 mi North 18.4 mph 24.2 mph N/A   Mostly Cloudy
10:51 AM 37.0 °F 27.7 °F 17.1 °F 44% 30.40 in 10.0 mi NNW 16.1 mph 20.7 mph N/A   Mostly Cloudy
11:51 AM 37.9 °F 29.6 °F 17.1 °F 43% 30.43 in 10.0 mi North 13.8 mph 19.6 mph N/A   Mostly Cloudy
12:51 PM 39.2 °F 33.0 °F 17.6 °F 42% 30.44 in 10.0 mi North 9.2 mph 23.0 mph N/A   Mostly Cloudy
1:51 PM 39.9 °F 32.5 °F 17.1 °F 40% 30.44 in 10.0 mi NNW 12.7 mph 20.7 mph N/A   Mostly Cloudy
2:51 PM 39.0 °F 33.4 °F 16.0 °F 39% 30.45 in 10.0 mi NNW 8.1 mph - N/A   Mostly Cloudy
3:51 PM 37.9 °F 32.1 °F 15.1 °F 39% 30.47 in 10.0 mi NW 8.1 mph - N/A   Mostly Cloudy
4:51 PM 39.0 °F 34.8 °F 16.0 °F 39% 30.48 in 10.0 mi North 5.8 mph - N/A   Mostly Cloudy
5:51 PM 36.0 °F 33.3 °F 15.1 °F 43% 30.49 in 10.0 mi NNE 3.5 mph - N/A   Scattered Clouds
6:51 PM 36.0 °F 33.3 °F 16.0 °F 44% 30.52 in 10.0 mi West 3.5 mph - N/A   Scattered Clouds
7:51 PM 33.1 °F - 17.1 °F 52% 30.53 in 10.0 mi Calm Calm - N/A   Clear
8:51 PM 30.0 °F - 18.0 °F 61% 30.53 in 10.0 mi Calm Calm - N/A   Clear
9:51 PM 30.0 °F 23.2 °F 21.0 °F 69% 30.54 in 10.0 mi SSE 6.9 mph - N/A   Clear
10:51 PM 28.9 °F - 21.9 °F 75% 30.54 in 10.0 mi Calm Calm - N/A   Clear
11:51 PM 28.9 °F 23.9 °F 23.0 °F 78% 30.53 in 10.0 mi South 4.6 mph - N/A   Clear